< < Back
Terminal Aerodrome Forecast


Current Version              Previous Versions:   1  2  3  4  5  6  7  8  9  

Terminal Aerodrome Forecast

616
FTUS42 KJAX 311100
TAFJAX
TAF
KJAX 311120Z 3112/0112 00000KT 4SM BR SCT015 SCT250
     FM311300 15006KT P6SM SCT025 SCT250
     FM311900 12009KT P6SM VCSH SCT030 BKN070
     FM010100 14005KT P6SM FEW030 SCT070 SCT250=



Latest METAR

056
SAUS80 KWBC 010700 RRJ
MTRJAX
METAR KJAX 010656Z 00000KT 10SM FEW080 SCT250 24/23 A2994 RMK AO2 SLP139
T02440233


USA.gov is the U.S. government's official web portal to all federal, state and local government web resources and services.